Wind_Speed
14 15 15 15 15 15 15 15 16 16 16 16 17 17 17 16 16 15 15 15 15 15 16 16 16 17 18 18 19 19 19 18 19 19 20 21 21 21 21 21 20 20 20
15 15 16 16 16 16 16 16 17 17 17 17 17 17 17 16 16 15 15 15 16 17 17 17 17 17 17 18 19 19 19 19 19 19 20 21 22 22 22 22 22 22 21
16 16 16 16 17 17 17 17 17 17 18 17 17 17 17 17 16 16 17 16 16 17 17 17 17 18 18 18 18 18 19 20 20 20 21 21 22 22 22 22 22 22 22
17 17 17 17 17 17 17 17 17 18 17 18 18 18 18 18 17 17 18 18 17 17 18 18 18 18 18 19 19 20 20 21 21 21 22 23 23 23 23 23 23 23 23
18 18 18 18 18 18 18 18 18 18 19 19 19 18 18 18 18 18 18 18 18 18 19 19 19 19 19 20 20 21 22 22 22 22 23 23 23 23 23 22 23 23 23
19 19 19 20 20 20 20 19 20 20 20 19 19 19 19 19 19 20 20 19 19 19 20 20 20 20 20 21 21 22 22 23 23 23 23 23 23 23 22 23 23 24 24
19 19 19 19 20 20 20 20 20 20 20 19 20 20 20 20 20 20 20 20 21 21 21 21 21 21 21 21 22 22 22 23 23 23 23 23 23 23 23 23 24 24 24
19 19 19 19 19 20 20 20 21 21 21 20 21 21 21 21 22 21 22 22 22 22 21 21 21 21 22 22 22 23 23 23 23 24 24 24 24 24 24 24 25 25 26
20 20 20 20 20 21 21 21 21 22 22 22 21 22 22 23 23 23 23 24 24 23 22 22 22 22 22 23 24 24 24 24 25 25 25 25 24 25 25 26 26 27 26
20 21 21 21 21 22 22 22 22 22 22 22 22 23 23 24 24 24 25 25 24 24 23 23 23 24 24 24 25 25 26 26 26 26 26 25 25 26 26 26 27 27 27
22 22 22 22 23 23 23 23 23 23 23 23 23 24 24 24 24 24 25 25 24 24 25 25 25 25 26 26 26 26 26 27 27 27 26 26 26 26 27 27 28 29 29
24 23 23 24 24 24 24 24 24 24 25 25 24 25 25 25 25 25 25 26 26 26 26 27 27 27 27 27 27 27 27 27 26 26 26 27 27 27 28 29 30 30 30
25 25 25 25 25 25 25 25 25 25 25 25 25 25 25 25 26 26 26 27 27 27 28 28 28 28 29 29 29 28 28 27 27 27 27 28 29 29 30 30 30 30 31
26 25 25 25 25 25 25 25 26 26 25 25 25 25 26 26 26 26 27 27 28 28 28 29 29 29 30 30 30 29 29 29 29 29 29 29 30 30 31 31 31 31 31
27 27 27 27 27 27 27 27 27 27 27 27 26 26 26 26 27 27 28 28 28 29 29 29 29 29 29 30 30 30 30 30 31 32 32 32 32 31 31 32 32 31 32
29 30 29 29 29 29 28 29 29 29 28 28 27 27 27 28 28 29 29 29 29 30 30 30 30 30 30 30 30 30 31 32 32 33 33 32 32 32 32 32 33 33 34
31 31 31 31 30 30 30 31 30 29 29 29 29 29 29 29 30 30 30 30 30 30 30 30 30 30 30 30 30 31 31 32 32 32 32 33 33 34 34 34 34 35 35
33 33 33 33 33 32 32 32 31 31 30 30 30 30 30 30 30 30 31 31 31 31 30 31 31 31 31 31 31 32 32 32 32 32 32 33 33 34 35 35 36 36 36
34 34 34 34 34 34 33 33 33 32 32 31 31 31 31 31 31 30 30 30 30 31 32 32 32 32 32 32 32 33 33 33 33 33 33 33 33 34 35 35 36 37 37
34 35 35 34 34 34 34 34 34 33 33 32 32 32 32 32 31 31 31 31 31 32 33 33 33 33 33 33 33 33 33 34 34 34 34 34 34 35 35 35 36 37 37
35 35 35 34 35 35 35 35 34 34 34 34 34 33 33 32 32 32 32 32 32 33 33 34 34 34 34 34 34 34 35 35 35 34 34 34 35 35 36 36 38 38 38
36 35 35 35 35 35 35 35 35 35 35 35 34 34 34 34 33 33 33 34 34 34 34 34 35 35 35 36 36 36 37 36 35 36 35 36 36 37 38 39 39 40 40
35 35 35 35 35 35 34 35 35 35 35 35 35 34 34 35 35 35 35 35 35 36 36 36 35 36 37 37 37 37 37 37 37 37 37 37 38 38 39 40 41 41 41
35 35 35 35 35 34 34 35 35 35 35 35 35 35 35 36 36 37 36 36 37 38 38 38 38 37 38 38 38 38 38 38 38 38 39 39 39 39 40 41 42 42 43
35 35 35 35 34 35 35 35 35 36 36 35 35 36 36 36 36 37 37 38 38 38 39 39 39 39 39 39 39 38 38 39 39 40 40 40 41 41 42 42 43 44 44
35 35 35 35 35 36 36 36 36 36 36 35 35 35 36 36 37 37 38 38 39 39 39 39 39 38 38 38 38 39 39 39 40 40 41 41 42 43 43 44 44 45 45
Wind_Direction
296 297 298 298 297 296 294 294 293 289 286 284 284 283 284 284 286 284 282 282 283 283 282 280 277 275 275 276 276 277 279 280 279 278 279 280 279 280 281 283 285 286 287
295 295 295 296 295 295 294 293 292 291 289 287 285 282 283 284 284 282 283 285 285 286 286 284 282 278 278 278 278 277 278 280 280 281 280 281 282 282 281 281 283 284 285
295 295 294 295 296 296 294 292 291 291 290 288 285 282 282 282 281 281 282 284 285 285 286 285 283 283 282 281 280 280 280 281 282 282 283 282 282 282 282 282 282 283 283
293 294 293 294 294 295 294 292 291 291 289 287 286 283 279 279 280 281 283 283 285 287 288 286 285 283 283 282 282 283 283 284 283 283 284 284 282 283 284 282 282 282 283
293 294 293 293 293 292 292 291 288 288 287 286 284 282 279 277 278 279 281 283 285 286 288 287 285 283 283 283 283 284 284 284 284 284 284 284 282 282 283 283 283 283 283
293 294 294 294 292 291 290 289 288 288 288 286 282 282 279 277 277 279 280 282 284 286 286 285 283 283 283 283 283 284 284 284 284 284 284 284 283 281 282 283 283 283 282
295 296 296 296 294 292 291 289 289 288 287 284 283 283 282 280 281 282 282 282 283 286 286 285 284 283 283 283 284 284 284 284 284 285 286 284 282 281 282 283 283 283 283
294 295 295 296 295 294 293 292 290 288 285 283 282 281 281 281 281 282 283 283 283 285 285 284 284 282 283 284 286 286 286 286 286 286 286 285 283 281 282 282 282 283 283
292 294 295 295 294 293 292 291 290 289 286 283 283 282 280 279 279 280 281 283 283 283 284 285 284 284 283 284 285 285 286 286 286 287 286 284 283 282 282 283 283 283 284
291 292 294 295 296 295 293 291 290 289 287 284 283 284 282 281 280 280 281 282 282 282 282 283 284 284 284 283 285 285 286 286 285 285 284 283 283 283 283 283 284 284 284
289 290 293 295 296 296 295 292 290 289 287 286 286 286 284 282 281 280 280 281 282 282 282 282 283 284 285 285 285 285 286 286 287 285 283 282 282 283 284 283 283 284 285
287 288 289 292 294 295 295 293 291 289 287 286 286 286 286 284 283 280 280 281 282 282 282 282 283 284 285 286 285 285 286 286 286 286 283 281 281 282 283 283 283 283 284
286 287 288 289 291 293 294 293 292 290 288 287 286 287 286 285 284 282 280 281 283 282 281 282 283 283 283 285 285 284 285 284 285 286 285 283 281 281 282 282 283 284 284
286 286 287 288 289 291 292 293 292 290 289 288 287 286 285 285 285 284 283 282 283 282 282 282 283 283 283 283 283 283 283 283 285 285 285 285 283 282 282 283 285 285 285
284 285 286 287 288 288 289 291 292 290 288 289 287 287 286 286 285 285 284 284 284 282 283 283 284 285 285 284 283 282 281 282 284 285 285 285 284 284 284 284 284 285 285
282 283 285 286 285 286 287 288 289 289 289 288 286 286 287 287 286 286 285 285 284 284 284 284 284 285 285 285 284 284 283 283 285 286 286 286 285 284 284 284 284 284 284
280 281 283 285 285 286 286 287 287 287 287 287 285 285 286 287 286 286 285 285 285 285 284 285 286 285 284 284 284 285 285 285 286 286 285 285 285 284 284 284 285 285 285
278 280 281 283 284 285 286 287 286 285 285 286 286 285 285 285 285 285 285 284 285 285 285 286 287 286 284 283 284 285 286 286 286 286 287 286 286 284 284 285 286 285 285
276 278 280 281 282 283 284 285 286 285 284 284 285 285 283 282 283 283 284 284 284 285 286 286 287 286 286 284 283 284 285 285 286 286 286 286 286 285 286 287 286 286 285
277 278 279 280 280 282 283 285 285 284 283 283 284 285 283 282 282 283 283 283 284 286 286 286 287 286 285 285 285 286 286 286 285 285 286 286 286 286 286 287 287 287 286
276 277 278 279 280 281 283 284 284 284 283 283 283 283 283 282 282 283 283 283 284 286 286 286 287 286 284 284 285 286 286 286 285 286 286 286 286 286 286 287 288 287 287
275 276 277 278 279 280 282 284 285 284 284 283 282 282 282 283 283 283 284 283 283 285 286 286 287 286 285 283 283 284 285 284 284 286 287 286 286 287 287 288 288 287 288
275 276 277 278 279 280 281 284 285 285 284 283 283 283 283 284 284 283 284 284 284 285 286 287 287 286 284 283 283 284 284 284 284 285 286 286 287 287 288 289 288 288 288
275 276 278 278 278 279 281 283 285 286 285 284 282 282 283 284 284 284 283 284 285 285 286 286 286 285 284 283 282 282 284 285 285 286 286 287 287 288 289 289 289 289 289
276 277 278 279 279 280 282 283 285 285 285 285 284 283 283 284 284 284 284 285 285 286 287 287 287 287 285 283 283 284 285 285 286 286 287 287 288 288 289 290 290 290 290
277 278 279 279 279 281 282 284 285 285 285 285 285 284 284 285 285 285 285 286 286 287 288 287 286 286 285 285 284 285 285 286 287 287 288 288 289 289 290 291 291 291 291
Height
5821 5820 5819 5818 5817 5816 5815 5814 5813 5813 5812 5812 5811 5810 5809 5809 5808 5808 5808 5808 5807 5807 5806 5806 5806 5805 5805 5806 5806 5806 5805 5806 5806 5806 5805 5805 5805 5806 5805 5805 5805 5805 5804
5817 5816 5815 5814 5813 5812 5811 5810 5809 5808 5808 5807 5806 5806 5805 5805 5805 5804 5804 5804 5803 5803 5802 5801 5801 5801 5800 5800 5800 5800 5800 5800 5800 5800 5800 5799 5799 5799 5799 5799 5799 5799 5799
5813 5812 5811 5810 5809 5808 5806 5805 5804 5804 5803 5802 5802 5802 5801 5801 5800 5800 5800 5799 5799 5798 5798 5797 5796 5796 5795 5795 5795 5795 5795 5794 5794 5794 5794 5793 5793 5793 5793 5793 5793 5793 5792
5809 5808 5807 5806 5805 5803 5802 5801 5800 5799 5798 5798 5797 5797 5796 5796 5796 5796 5795 5795 5794 5793 5793 5792 5791 5791 5790 5790 5790 5789 5789 5788 5788 5788 5788 5787 5787 5787 5786 5786 5786 5786 5786
5804 5803 5802 5801 5800 5799 5798 5797 5796 5795 5794 5793 5792 5792 5792 5792 5791 5791 5790 5790 5789 5788 5788 5787 5786 5785 5785 5784 5784 5784 5783 5782 5782 5782 5781 5781 5780 5780 5779 5779 5779 5779 5779
5800 5798 5797 5796 5795 5794 5793 5791 5790 5789 5788 5788 5787 5787 5787 5786 5786 5785 5785 5785 5784 5783 5782 5781 5781 5780 5780 5779 5778 5778 5777 5777 5776 5775 5775 5774 5773 5772 5772 5772 5772 5772 5771
5795 5794 5792 5791 5789 5788 5787 5786 5785 5784 5783 5782 5782 5782 5781 5781 5781 5780 5780 5779 5778 5778 5777 5776 5775 5774 5774 5773 5772 5772 5771 5770 5770 5769 5768 5767 5766 5766 5765 5765 5764 5764 5763
5790 5789 5787 5786 5784 5783 5782 5780 5779 5778 5777 5777 5776 5776 5776 5775 5775 5774 5774 5773 5772 5771 5771 5770 5769 5769 5768 5767 5766 5766 5765 5763 5763 5762 5761 5760 5759 5758 5758 5757 5757 5756 5755
5785 5784 5782 5780 5779 5777 5776 5775 5773 5772 5771 5771 5770 5770 5770 5769 5769 5768 5767 5766 5766 5765 5764 5764 5763 5762 5761 5760 5760 5759 5758 5757 5756 5754 5753 5752 5752 5751 5750 5749 5749 5748 5747
5780 5778 5777 5775 5773 5771 5770 5769 5767 5766 5765 5765 5764 5764 5763 5763 5762 5761 5760 5760 5759 5759 5758 5757 5756 5755 5754 5753 5753 5752 5751 5750 5749 5747 5746 5745 5744 5743 5742 5741 5740 5739 5739
5774 5772 5771 5769 5767 5766 5764 5762 5761 5760 5759 5758 5758 5757 5756 5756 5755 5754 5753 5752 5752 5752 5751 5750 5749 5748 5747 5746 5745 5744 5743 5742 5741 5739 5738 5737 5736 5735 5734 5733 5732 5730 5730
5768 5766 5765 5763 5761 5760 5758 5756 5755 5753 5752 5752 5751 5750 5749 5748 5747 5746 5746 5745 5744 5744 5743 5743 5742 5740 5739 5738 5737 5736 5735 5734 5732 5731 5730 5729 5728 5727 5726 5724 5723 5721 5720
5761 5759 5758 5756 5755 5753 5752 5750 5748 5747 5745 5744 5743 5743 5742 5741 5740 5739 5738 5737 5736 5736 5735 5734 5733 5732 5731 5730 5729 5728 5726 5725 5724 5723 5721 5720 5719 5718 5716 5715 5713 5712 5710
5753 5752 5751 5750 5748 5747 5745 5743 5742 5740 5738 5737 5736 5735 5734 5733 5732 5731 5730 5729 5728 5727 5726 5725 5724 5723 5722 5721 5720 5718 5717 5716 5715 5714 5713 5711 5709 5708 5706 5705 5704 5702 5701
5746 5745 5743 5742 5741 5739 5738 5736 5734 5733 5731 5730 5728 5727 5726 5725 5724 5722 5721 5720 5719 5718 5717 5716 5715 5714 5713 5711 5710 5709 5708 5706 5705 5704 5703 5701 5700 5698 5697 5695 5693 5692 5691
5737 5736 5735 5734 5733 5731 5730 5729 5726 5725 5723 5721 5720 5719 5717 5716 5715 5713 5712 5711 5710 5709 5708 5707 5706 5705 5704 5702 5701 5699 5698 5697 5695 5693 5692 5690 5689 5688 5686 5685 5683 5682 5680
5728 5727 5726 5725 5724 5723 5721 5720 5718 5717 5714 5713 5711 5710 5708 5707 5706 5704 5703 5702 5700 5699 5698 5698 5697 5695 5694 5692 5691 5690 5688 5687 5685 5683 5682 5680 5678 5677 5675 5674 5672 5671 5669
5718 5717 5717 5716 5715 5713 5712 5710 5709 5707 5706 5704 5702 5701 5699 5698 5696 5694 5693 5692 5691 5690 5689 5688 5687 5685 5684 5683 5682 5680 5678 5676 5675 5673 5671 5669 5668 5666 5664 5663 5661 5659 5657
5708 5708 5707 5706 5705 5703 5702 5700 5699 5697 5696 5695 5693 5691 5689 5688 5686 5685 5683 5683 5682 5681 5680 5678 5677 5676 5674 5673 5671 5670 5668 5666 5664 5663 5661 5659 5657 5655 5653 5651 5649 5647 5645
5698 5697 5696 5695 5694 5693 5692 5690 5689 5687 5686 5684 5683 5682 5680 5678 5676 5675 5674 5673 5672 5671 5669 5668 5667 5665 5664 5662 5660 5659 5657 5655 5654 5652 5650 5648 5646 5644 5642 5640 5637 5635 5633
5687 5686 5685 5685 5684 5683 5681 5680 5678 5677 5675 5674 5673 5671 5669 5668 5667 5666 5664 5663 5662 5661 5659 5657 5656 5654 5653 5651 5650 5648 5646 5644 5642 5640 5639 5637 5635 5632 5630 5628 5625 5623 5620
5676 5675 5675 5674 5673 5672 5671 5669 5667 5666 5664 5663 5662 5660 5659 5657 5656 5655 5654 5653 5651 5650 5648 5647 5645 5643 5641 5640 5638 5637 5635 5633 5631 5629 5627 5625 5623 5620 5618 5616 5613 5610 5608
5665 5664 5664 5663 5662 5661 5660 5658 5657 5655 5654 5652 5651 5650 5648 5647 5645 5644 5643 5642 5640 5639 5637 5635 5634 5632 5630 5628 5626 5625 5623 5621 5619 5617 5615 5613 5610 5608 5606 5603 5600 5597 5594
5654 5653 5652 5652 5651 5650 5649 5648 5646 5644 5643 5641 5640 5639 5637 5636 5634 5633 5632 5630 5629 5627 5625 5623 5622 5620 5618 5616 5614 5612 5610 5608 5606 5604 5602 5600 5598 5595 5592 5589 5586 5583 5581
5642 5642 5641 5640 5639 5639 5638 5636 5635 5633 5631 5630 5628 5627 5626 5624 5623 5621 5620 5618 5617 5615 5613 5611 5609 5607 5605 5603 5602 5600 5598 5596 5593 5591 5589 5586 5584 5581 5578 5576 5573 5570 5567
5631 5630 5630 5629 5628 5627 5626 5625 5623 5622 5620 5618 5617 5615 5614 5613 5611 5609 5608 5606 5604 5602 5600 5598 5596 5594 5592 5590 5589 5587 5585 5583 5580 5578 5575 5573 5570 5567 5565 5562 5558 5555 5552